Location: Mountain View
(37.3861°N, 122.0839°W)
Time: 18:59:08
(UTC-07:00)

Tiangong 2 - Pass Details

Date: 19 August 2018
Orbit: 383 x 394 km, 42.8° (Epoch: 23 September)

Event Time Altitude Azimuth Distance (km) Brightness Sun altitude
Exits shadow 05:44:15 - 278° (W) 1,450 3.5 -9.0°
Reaches altitude 10° 05:44:21 10° 279° (W) 1,411 3.4 -9.0°
Maximum altitude 05:47:20 36° 349° (NNW) 631 2.3 -8.4°
Drops below altitude 10° 05:50:20 10° 58° (ENE) 1,419 5.6 -7.9°
Sets 05:52:31 0° 67° (ENE) 2,278 7.7 -7.5°
